Regional Weather Roundup
Issued by NWS Albany, NY

Home | Current Version | Previous Version | Text Only | Print | Product List | Glossary On
Versions: 1 2 3 4 5 6 7 8 9 10 11 12 13 14 15 16 17 18 19 20 21 22 23 24 25 26 27 28 29 30 31 32 33 34 35 36 37 38 39 40 41 42 43 44 45 46 47 48 49 50
000
ASUS41 KALY 281310
RWRALY

NEW YORK STATE HOURLY WEATHER ROUNDUP
NATIONAL WEATHER SERVICE ALBANY NY
900 AM EDT TUE JUL 28 2015

NOTE: "FAIR" INDICATES FEW OR NO CLOUDS BELOW 12,000 FEET WITH NO
SIGNIFICANT WEATHER AND/OR NO OBSTRUCTIONS TO VISIBILITY.

NYZ032-033-038>043-046>054-057>066-NYZ062>081-281400-
EAST


CITY           SKY/WX    TMP DP  RH WIND       PRES   REMARKS
ALBANY         MOSUNNY   75  64  68 S3        30.02S
GLENS FALLS    MOSUNNY   73  67  81 SE5       30.01F
POUGHKEEPSIE   CLOUDY    71  69  93 CALM      30.01S FOG
NEWBURGH       SUNNY     73  70  88 W7        30.04R
MONTGOMERY     SUNNY     75  70  84 CALM      30.03R
WHITE PLAINS   SUNNY     78  70  76 W5        30.01S
ISLIP          MOSUNNY   80  71  74 W6        29.99F
NEW YORK CITY  MOSUNNY   81  68  64 NW3       30.00S
CENTRAL PARK   SUNNY     80  68  66 CALM      30.03F
$$

NYZ005>009-017-018-044>046-055-056-281400-
CENTRAL


CITY           SKY/WX    TMP DP  RH WIND       PRES   REMARKS
FULTON         MOSUNNY   76  67  73 W5        30.03R
SYRACUSE       PTSUNNY   78  65  63 W7        30.02S
ROME           SUNNY     71  63  75 SE3       30.05S
ELMIRA         MOSUNNY   65  65 100 CALM      30.07S
BINGHAMTON     SUNNY     71  64  78 W3        30.08S
MONTICELLO     SUNNY     72  66  83 CALM      30.09S
$$

NYZ026>034-041>043-281400-
NORTH


CITY           SKY/WX    TMP DP  RH WIND       PRES   REMARKS
WATERTOWN      SUNNY     76  66  71 S7        30.01S
FORT DRUM      NOT AVBL
MASSENA        MOSUNNY   74  64  71 VRB5      30.00S
SARANAC LAKE   SUNNY     71  62  73 VRB3      30.04F
PLATTSBURGH    SUNNY     73  67  81 CALM      29.99S
$$

NYZ001>004-010>016-019>021-281400-
WEST


CITY           SKY/WX    TMP DP  RH WIND       PRES   REMARKS
NIAGARA FALLS  MOSUNNY   77  64  64 CALM      30.04R
BUFFALO        MOSUNNY   77  64  64 CALM      30.05S
DUNKIRK        SUNNY     77  62  59 CALM      30.06R
JAMESTOWN      SUNNY     70  61  73 CALM      30.12R
WELLSVILLE     SUNNY     73  64  73 CALM      30.14R
ROCHESTER      PTSUNNY   75  66  73 SW7       30.05R
PENN YAN       SUNNY     73  63  70 SW7       30.06S
$$

             KEY
       WCI = WIND CHILL INDEX
       VSB = VISIBILITY
       HX  = HEAT INDEX
$$



USA.gov is the U.S. government's official web portal to all federal, state and local government web resources and services.